Flag for United Kingdom Weather past 2 weeks in Swanage, England, United Kingdom

Now
64 °F

Scattered clouds.


Feels Like: 64 °F
Forecast: 51 / 73 °F
Wind: 12 mph from Southwest

Location: Bournemouth Airport

Current Time: Aug 1, 2015 at 8:16:46 PM

Latest Report: Aug 1, 2015 at 7:20 PM


Visibility: N/A

Pressure: 30.04 "Hg

Humidity: 68%

Dew point: 54 °F

Location of SwanageLocation

Historic Weather in Swanage — Graph

°F

Swanage temperature yesterday

Maximum temperature yesterday: 68 °F (at 12:20 PM)
Minimum temperature yesterday: 41 °F (at 4:50 AM)
Average temperature yesterday: 59 °F

Past Weeks' High & Low Weather Summary

 TemperatureHumidityPressure
High75 °F (Jul 19, 2:20 PM)100% (Jul 20, 4:50 AM)30.15 "Hg (Jul 20, 4:50 AM)
Low41 °F (Jul 31, 4:50 AM)33% (Jul 30, 5:20 PM)29.47 "Hg (Jul 26, 3:20 PM)
Average61 °F72%29.90 "Hg
* Reported Jul 17 7:20 PM — Aug 1 7:20 PM, Swanage, Weather by CustomWeather, © 2015

Note: Actual official high and low records may vary slightly from our data, if they occured in-between our weather recording intervals... More about our weather records

Advertising

Swanage weather history for previous 24 hours

 ConditionsComfort  
Time TempWeatherWind HumidityBarometerVisibility
7:20 PM
Sat, Aug 1
64 °FScattered clouds.12 mph68%30.04 "HgN/A
6:50 PM64 °FScattered clouds.10 mph64%30.04 "HgN/A
6:20 PM64 °FScattered clouds.12 mph64%30.04 "HgN/A
5:50 PM66 °FScattered clouds.14 mph64%30.04 "HgN/A
5:20 PM66 °FScattered clouds.14 mph60%30.04 "HgN/A
4:50 PM68 °FScattered clouds.13 mph56%30.04 "HgN/A
4:20 PM66 °FScattered clouds.13 mph60%30.04 "HgN/A
3:50 PM68 °FScattered clouds.15 mph56%30.04 "HgN/A
3:20 PM68 °FScattered clouds.15 mph56%30.04 "HgN/A
2:50 PM68 °FScattered clouds.14 mph53%30.04 "HgN/A
2:20 PM68 °FScattered clouds.14 mph56%30.01 "HgN/A
1:50 PM66 °FScattered clouds.13 mph56%30.04 "HgN/A
1:20 PM66 °FScattered clouds.10 mph60%30.04 "HgN/A
12:50 PM66 °FScattered clouds.10 mph52%30.04 "HgN/A
12:20 PM64 °FScattered clouds.8 mph60%30.04 "HgN/A
11:50 AM64 °FScattered clouds.8 mph60%30.04 "HgN/A
11:20 AM64 °FScattered clouds.9 mph56%30.04 "HgN/A
10:50 AM63 °FPassing clouds.7 mph64%30.04 "HgN/A
10:20 AM63 °FPassing clouds.7 mph64%30.04 "HgN/A
9:50 AM61 °FPassing clouds.7 mph68%30.04 "HgN/A
9:20 AM57 °FSunny.6 mph77%30.04 "Hg10 mi
8:50 AM55 °FSunny.No wind82%30.04 "Hg10 mi
8:20 AM54 °FSunny.No wind88%30.04 "Hg10 mi
7:50 AM52 °FSunny.No wind88%30.01 "Hg10 mi
7:20 AM46 °FSunny.No wind93%30.01 "Hg10 mi
6:50 AM43 °FSunny.No wind93%30.01 "Hg10 mi
5:50 AM41 °FLight fog.No wind93%30.01 "HgN/A
5:20 AM41 °FClear.No wind93%30.01 "Hg10 mi
4:50 AM41 °FClear.No wind93%30.01 "Hg10 mi
1:20 AM45 °FClear.2 mph81%30.01 "Hg10 mi
11:20 PM
Fri, Jul 31
50 °FClear.2 mph76%30.01 "Hg10 mi
10:50 PM52 °FClear.2 mph72%30.01 "Hg10 mi
10:20 PM54 °FClear.2 mph67%30.01 "Hg10 mi
9:50 PM55 °FSunny.2 mph59%30.01 "Hg10 mi
9:20 PM59 °FSunny.5 mph51%30.01 "Hg10 mi
8:50 PM59 °FSunny.5 mph51%30.01 "Hg10 mi
8:20 PM61 °FSunny.6 mph52%30.01 "Hg10 mi
Weather by CustomWeather, © 2015

See weather overviewHow to use our weather pages